[[{"header":{"parameterUnit":"m.s-1","parameterCategory":1,"la1":30.2991,"la2":30.254,"lo1":-89.0895,"lo2":-89.0444,"dy":0.0017,"dx":0.0017,"nx":28,"ny":28,"refTime":"2024-08-17T21:00:00:Z","depth":0,"parameterNumber":2,"parameterNumberName":"U-component_of_WINDS"},"data":[0,0,0,0,0,0,0,0,0,0,0,0,0,0,0,0,0,0,0,0,0,0,0,0,0,0,0,0,0,0,0,0,0,0,0,0,0,0,0,0,0,0,0,0,0,0,0,0,0,0,0,0,0,0,0,0,0,0,3.2008,3.2007,0,3.1976,3.1975,3.1975,3.1889,3.1888,3.1886,3.1884,3.1852,3.1853,3.1854,0,0,0,0,0,0,0,0,0,0,0,0,0,3.1997,3.1998,3.2008,3.2007,3.2007,3.1976,3.1975,3.1975,3.189,3.1887,3.1885,3.1883,3.1852,3.1853,3.1854,0,0,0,0,0,0,0,0,0,0,0,0,0,3.1987,3.1998,3.2008,3.1961,3.1956,3.1976,3.1975,3.1975,3.189,3.1887,3.1885,3.1882,3.1852,3.1853,3.1854,3.1917,0,0,3.1858,3.1859,0,0,0,0,0,0,0,0,3.1988,3.1988,3.1968,3.1964,3.1959,3.1934,3.196,3.1956,3.1891,3.1915,3.1884,3.1881,3.1882,3.188,3.188,3.1916,3.1915,3.1858,3.1859,3.186,3.186,0,0,0,0,0,0,0,3.1989,3.1988,3.1995,3.1968,3.1962,3.1942,3.1937,3.1959,3.1914,3.1913,3.1907,3.1904,3.1879,3.1879,3.1879,3.1914,3.1858,3.1859,3.186,3.1861,3.2002,3.2004,0,0,0,0,0,0,3.1996,3.199,3.1996,3.1994,3.1967,3.1944,3.1939,3.1945,3.1914,3.1906,3.1906,3.19,3.1878,3.1878,3.1878,3.195,3.186,3.1861,3.1862,3.1999,3.2002,3.2005,0,0,0,0,0,0,3.1996,3.1997,3.1997,3.199,3.1989,3.1947,3.1954,3.1945,3.1946,3.1909,3.1901,3.1915,3.1876,3.1876,3.1908,3.1948,3.1861,3.1863,3.1995,3.2,3.2004,3.2096,0,0,0,0,0,0,3.1996,3.1998,3.2021,3.1991,3.1989,3.2028,3.1956,3.1947,3.1948,3.194,3.1915,3.1908,3.1874,3.1907,3.191,3.1948,3.1864,3.1991,3.1997,3.2002,3.209,3.2103,3.2115,0,0,0,0,0,3.1996,3.2048,3.2022,3.2023,3.2017,3.2031,3.203,3.1989,3.1952,3.1975,3.1952,3.1909,3.1944,3.1911,3.1913,3.1953,3.1989,3.1996,3.2002,3.2084,3.2101,3.2115,0,0,0,0,0,0,3.2083,3.2043,3.2014,3.2058,3.2049,3.2016,3.2044,3.2008,3.2009,3.2001,3.1951,3.1946,3.1986,3.1973,3.1937,3.2013,3.1959,3.1967,3.2021,3.2036,3.2049,3.2051,3.1865,0,0,0,0,0,3.2107,3.2121,3.2086,3.2128,3.2125,3.2086,3.209,3.206,3.2048,3.2043,3.2022,3.2013,3.2021,3.2028,3.2034,3.2087,3.2081,3.2116,3.2129,3.214,3.2147,3.2175,3.219,3.2027,3.2027,3.2027,0,0,3.2157,3.2137,3.2149,3.2145,3.2134,3.215,3.2083,3.2102,3.2114,3.2046,3.2076,3.2061,3.2047,3.2091,3.2109,3.2081,3.2191,3.2148,3.2157,3.2158,3.2184,3.2199,3.2213,3.2032,3.2031,3.203,0,0,3.2257,3.2243,3.2277,3.2268,3.2252,3.2226,3.2235,3.2209,3.2196,3.2225,3.2175,3.2188,3.2204,3.2197,3.2195,3.2295,3.2256,3.2298,3.2365,3.2394,3.2407,3.2418,3.2454,3.2468,3.2305,3.2306,3.2306,0,3.2322,3.2344,3.23,3.2323,3.2323,3.2263,3.2298,3.2291,3.2279,3.228,3.2249,3.2269,3.2255,3.2297,3.2322,3.2322,3.2331,3.23,3.2408,3.2419,3.2429,3.2463,3.2477,3.2311,3.231,3.231,3.2309,0,3.2424,3.2441,3.247,3.246,3.2463,3.2493,3.2454,3.2463,3.2433,3.2411,3.2442,3.2424,3.2426,3.2434,3.2404,3.2472,3.2455,3.2417,3.2361,3.245,3.2482,3.2494,3.2318,3.2317,3.2315,3.2314,0,0,3.2577,3.2543,3.2555,3.255,3.2529,3.2541,3.2568,3.257,3.2579,3.2573,3.2595,3.2611,3.2576,3.2574,3.2544,3.2569,3.2651,3.2528,3.2527,3.2552,3.2725,3.2754,3.277,3.2625,3.2627,3.2629,3.2726,0,3.2672,3.2716,3.2678,3.2729,3.2744,3.2688,3.2712,3.2703,3.2683,3.2694,3.2672,3.2684,3.2637,3.2635,3.2658,3.2636,3.2685,3.2628,3.2646,3.2647,3.2651,3.2786,3.2816,3.2909,3.2738,3.274,3.2742,0,3.2788,3.2787,3.2841,3.2818,3.2823,3.2845,3.2844,3.2855,3.2843,3.2827,3.2827,3.279,3.2816,3.2762,3.2798,3.2761,3.2766,3.2757,3.2759,3.2759,3.27,3.279,3.2938,3.2952,3.276,3.2759,3.2758,0,3.2895,3.2908,3.2941,3.2939,3.2913,3.293,3.292,3.2906,3.291,3.291,3.2912,3.2915,3.2917,3.2921,3.2886,3.285,3.2927,3.287,3.2915,3.2916,3.2934,3.2933,3.3085,3.2937,3.2937,3.2937,3.2936,0,3.3005,3.304,3.2989,3.301,3.3048,3.3004,3.3043,3.3028,3.3016,3.3033,3.2985,3.3003,3.2956,3.2969,3.2943,3.2977,3.2978,3.2967,3.2959,3.2971,3.2973,3.2974,3.2967,3.294,3.2939,3.2939,3.2938,0,3.313,3.3098,3.3131,3.3104,3.3098,3.3128,3.3105,3.3124,3.3101,3.3124,3.3127,3.3093,3.3106,3.3072,3.308,3.3062,3.3112,3.3094,3.3116,3.311,3.3158,3.3154,3.3315,3.3334,3.3175,3.3176,3.3177,0,3.3203,3.3228,3.3205,3.3213,3.3206,3.3219,3.3223,3.3182,3.3189,3.3179,3.3199,3.3208,3.3213,3.3237,3.3213,3.3219,3.3201,3.3257,3.3202,3.3213,3.3203,3.3202,3.3205,3.3269,3.3271,3.3272,3.3274,0,3.3335,3.3318,3.3325,3.3328,3.3335,3.3335,3.3332,3.3341,3.3298,3.3308,3.332,3.3324,3.3333,3.3343,3.3344,3.3334,3.3298,3.3292,3.3302,3.3315,3.3327,3.3322,3.3147,3.3288,3.3286,3.3285,3.3285,3.3284,3.3436,3.3457,3.3444,3.3454,3.3448,3.3447,3.3463,3.3443,3.3453,3.3457,3.3432,3.3451,3.344,3.3438,3.3433,3.3447,3.3421,3.3437,3.3441,3.3446,3.3454,3.3325,3.3447,3.3447,3.3446,3.3446,3.3445,0,3.3566,3.3556,3.3566,3.3563,3.3572,3.3536,3.3532,3.3542,3.3558,3.3552,3.3558,3.3573,3.3583,3.3561,3.3567,3.3584,3.3567,3.3587,3.3585,3.3584,3.3476,3.3466,3.36,3.36,3.36,3.36,3.36,3.36,3.3635,3.3669,3.3651,3.3681,3.367,3.3688,3.3688,3.3687,3.3681,3.3701,3.3709,3.3694,3.3682,3.3687,3.3695,3.3688,3.3693,3.3719,3.3707,3.3606,3.3591,3.3577,3.3567,3.3721,3.3721,3.3813,3.3814,3.3815]},{"header":{"parameterUnit":"m.s-1","parameterCategory":1,"la1":30.2991,"la2":30.254,"lo1":-89.0895,"lo2":-89.0444,"dy":0.0017,"dx":0.0017,"nx":28,"ny":28,"refTime":"2024-08-17T21:00:00:Z","depth":0,"parameterNumber":3,"parameterNumberName":"V-component_of_WINDS"},"data":[0,0,0,0,0,0,0,0,0,0,0,0,0,0,0,0,0,0,0,0,0,0,0,0,0,0,0,0,0,0,0,0,0,0,0,0,0,0,0,0,0,0,0,0,0,0,0,0,0,0,0,0,0,0,0,0,0,0,-4.9832,-4.9834,0,-5.01,-5.0103,-5.0106,-5.0172,-5.017,-5.0169,-5.0167,-5.0438,-5.0446,-5.0455,0,0,0,0,0,0,0,0,0,0,0,0,0,-4.9374,-4.9382,-4.9831,-4.9835,-4.9838,-5.0099,-5.0103,-5.0107,-5.0172,-5.017,-5.0168,-5.0166,-5.0435,-5.0445,-5.0456,0,0,0,0,0,0,0,0,0,0,0,0,0,-4.96,-4.9384,-4.9831,-4.9902,-4.9912,-5.0098,-5.0103,-5.0108,-5.0173,-5.017,-5.0168,-5.0165,-5.0431,-5.0444,-5.0457,-5.0591,0,0,-5.0498,-5.0503,0,0,0,0,0,0,0,0,-4.9587,-4.9617,-4.9889,-4.9898,-4.9908,-5.01,-5.0041,-5.0269,-5.0174,-5.0074,-5.0167,-5.0164,-5.0327,-5.0349,-5.0405,-5.0603,-5.0615,-5.0499,-5.0507,-5.0513,-5.0516,0,0,0,0,0,0,0,-4.9571,-4.9605,-4.9937,-4.9892,-4.9905,-4.992,-4.995,-5.0084,-5.0211,-5.0082,-5.0088,-5.0119,-5.0332,-5.0392,-5.0411,-5.0619,-5.0498,-5.051,-5.0518,-5.0524,-5.0943,-5.0946,0,0,0,0,0,0,-4.9544,-4.9592,-4.9929,-4.9945,-4.9738,-4.9931,-4.9964,-5.0041,-5.021,-5.0234,-5.0121,-5.0121,-5.037,-5.0396,-5.0421,-5.0591,-5.0512,-5.0525,-5.0532,-5.094,-5.0943,-5.0947,0,0,0,0,0,0,-4.9533,-4.9573,-4.9918,-4.977,-4.9816,-4.9941,-5.0028,-5.0048,-5.0108,-5.0239,-5.0262,-5.0158,-5.0369,-5.0403,-5.0549,-5.0601,-5.0531,-5.0543,-5.0936,-5.0941,-5.0945,-5.0929,0,0,0,0,0,0,-4.952,-4.9569,-4.9621,-4.9771,-4.9823,-5.0042,-5.0031,-5.0055,-5.0131,-5.0133,-5.0281,-5.0303,-5.037,-5.0529,-5.0562,-5.0618,-5.0553,-5.0932,-5.0938,-5.0944,-5.0925,-5.0933,-5.0939,0,0,0,0,0,-4.9503,-4.9605,-4.9624,-4.9664,-4.9892,-5.0045,-5.0074,-5.0151,-5.0134,-5.0188,-5.0273,-5.0298,-5.0589,-5.0543,-5.0581,-5.0642,-5.0929,-5.0936,-5.0943,-5.0922,-5.0931,-5.0939,0,0,0,0,0,0,-4.9456,-4.9626,-4.9649,-4.9801,-4.9909,-5.0056,-5.0126,-5.0157,-5.027,-5.0268,-5.0356,-5.0389,-5.053,-5.06,-5.0546,-5.0781,-5.0759,-5.0774,-5.073,-5.074,-5.0746,-5.0727,-5.0564,0,0,0,0,0,-4.9464,-4.9575,-4.9716,-4.9838,-4.989,-4.9999,-5.0068,-5.0118,-5.0232,-5.0277,-5.0372,-5.0481,-5.0597,-5.0672,-5.0786,-5.0935,-5.0969,-5.0996,-5.1002,-5.1007,-5.102,-5.1106,-5.112,-5.0971,-5.097,-5.097,0,0,-4.948,-4.9586,-4.9651,-4.9831,-4.992,-5.0033,-5.0036,-5.0155,-5.024,-5.0294,-5.044,-5.0513,-5.064,-5.0789,-5.086,-5.0852,-5.1068,-5.1016,-5.1019,-5.1029,-5.1115,-5.1129,-5.1141,-5.0975,-5.0975,-5.0974,0,0,-4.9568,-4.9659,-4.9772,-4.9861,-4.9996,-5.0068,-5.0094,-5.0238,-5.029,-5.0437,-5.0481,-5.0582,-5.078,-5.087,-5.0941,-5.1064,-5.1092,-5.1099,-5.1134,-5.1217,-5.1229,-5.124,-5.1286,-5.1301,-5.111,-5.111,-5.111,0,-4.9571,-4.9744,-4.9825,-4.9943,-5.0021,-5.0078,-5.0192,-5.0274,-5.0439,-5.0492,-5.0481,-5.0733,-5.0821,-5.0993,-5.1024,-5.1079,-5.1113,-5.1083,-5.1221,-5.1233,-5.1244,-5.1289,-5.1306,-5.111,-5.111,-5.111,-5.111,0,-4.9742,-4.9862,-4.9936,-5.0096,-5.0183,-5.0298,-5.0395,-5.0473,-5.0515,-5.0588,-5.0737,-5.0847,-5.0985,-5.1029,-5.107,-5.1208,-5.1199,-5.1203,-5.1184,-5.1257,-5.1301,-5.1319,-5.1111,-5.1111,-5.1111,-5.111,0,0,-4.9808,-5.0013,-5.0039,-5.0113,-5.0267,-5.0361,-5.0478,-5.0615,-5.0681,-5.0792,-5.0894,-5.1061,-5.1067,-5.1148,-5.12,-5.1273,-5.1366,-5.1269,-5.1273,-5.1285,-5.1526,-5.1523,-5.1542,-5.1385,-5.1389,-5.1391,-5.1516,0,-4.9917,-5.0132,-5.0209,-5.0385,-5.0497,-5.0553,-5.0656,-5.0761,-5.0832,-5.0937,-5.1014,-5.1132,-5.113,-5.118,-5.1254,-5.1339,-5.1416,-5.1331,-5.1481,-5.1485,-5.145,-5.1565,-5.1562,-5.1674,-5.1534,-5.1537,-5.1539,0,-5.0073,-5.0189,-5.0378,-5.052,-5.057,-5.0661,-5.0794,-5.0893,-5.1013,-5.106,-5.1151,-5.1199,-5.1324,-5.1295,-5.147,-5.141,-5.1476,-5.1527,-5.1533,-5.1552,-5.1518,-5.1588,-5.1712,-5.1729,-5.1566,-5.1564,-5.1562,0,-5.0105,-5.0308,-5.0448,-5.0509,-5.0678,-5.0741,-5.0814,-5.0932,-5.101,-5.1125,-5.1177,-5.1304,-5.1375,-5.1472,-5.1553,-5.1524,-5.1721,-5.1698,-5.1764,-5.1762,-5.1804,-5.18,-5.1942,-5.1842,-5.1842,-5.1842,-5.1841,0,-5.022,-5.0333,-5.0465,-5.0551,-5.068,-5.0767,-5.0892,-5.0968,-5.1072,-5.1174,-5.1229,-5.1322,-5.1422,-5.1529,-5.1593,-5.1729,-5.1759,-5.1801,-5.1817,-5.1798,-5.1792,-5.1843,-5.1838,-5.1846,-5.1845,-5.1844,-5.1844,0,-5.0278,-5.037,-5.0527,-5.0674,-5.0714,-5.0803,-5.0929,-5.1014,-5.1088,-5.1216,-5.1251,-5.1366,-5.1495,-5.1585,-5.1749,-5.1792,-5.194,-5.1953,-5.19,-5.1908,-5.1969,-5.1963,-5.215,-5.218,-5.2058,-5.2059,-5.2059,0,-5.0346,-5.0435,-5.0593,-5.0666,-5.0739,-5.0855,-5.0936,-5.1024,-5.1106,-5.1251,-5.1319,-5.1452,-5.1564,-5.1767,-5.1865,-5.1991,-5.201,-5.2067,-5.2029,-5.2008,-5.2014,-5.2008,-5.2018,-5.2073,-5.2074,-5.2074,-5.2075,0,-5.0457,-5.0499,-5.0614,-5.0747,-5.0842,-5.0949,-5.1057,-5.1113,-5.1221,-5.1309,-5.1443,-5.153,-5.1699,-5.1831,-5.1968,-5.2042,-5.2077,-5.2086,-5.2108,-5.209,-5.2057,-5.2078,-5.1918,-5.2082,-5.2081,-5.208,-5.208,-5.208,-5.0525,-5.0607,-5.0732,-5.0859,-5.095,-5.105,-5.1139,-5.1224,-5.1337,-5.1484,-5.1528,-5.1668,-5.1787,-5.1974,-5.2051,-5.216,-5.2156,-5.2188,-5.2196,-5.2203,-5.2204,-5.2037,-5.2185,-5.2185,-5.2185,-5.2185,-5.2185,0,-5.0641,-5.0724,-5.084,-5.0991,-5.1091,-5.1116,-5.1237,-5.1319,-5.1442,-5.1551,-5.166,-5.1814,-5.1942,-5.2051,-5.2184,-5.2251,-5.227,-5.2283,-5.228,-5.2297,-5.2199,-5.2168,-5.2265,-5.2265,-5.2265,-5.2265,-5.2265,-5.2265,-5.0713,-5.0856,-5.0913,-5.1101,-5.1183,-5.1322,-5.1389,-5.1482,-5.157,-5.174,-5.1848,-5.1918,-5.2028,-5.2169,-5.2288,-5.2317,-5.2364,-5.2373,-5.2405,-5.2312,-5.2303,-5.2295,-5.2266,-5.2382,-5.2382,-5.2495,-5.2496,-5.2497]}]]